Location: Banios
(43.0451°N, 0.2335°E)
Time: 12:38:36
(UTC+00:00)

Tiros 1 despin weight - Visible Passes

Search period start: 08 May 2021 00:00
Search period end: 18 May 2021 00:00
Orbit: 593 x 642 km, 48.2° (Epoch: 07 May)

Date Brightness Start Highest point End Pass type
(mag) Time Alt. Az. Time Alt. Az. Time Alt. Az.
08 May ? 00:15:57 41° NNE 00:15:57 41° NNE 00:19:25 10° ENE visible
08 May ? 01:52:57 13° WNW 01:57:00 48° N 02:01:30 10° E visible
08 May ? 03:34:08 10° WNW 03:38:47 74° SSW 03:43:22 10° SE visible
08 May ? 22:53:48 12° ENE 22:53:48 12° ENE 22:54:07 10° ENE visible
09 May ? 00:30:47 41° NNW 00:31:24 44° N 00:35:53 10° ENE visible
09 May ? 02:08:50 10° WNW 02:13:30 61° NNE 02:18:05 10° E visible
09 May ? 03:50:35 10° WNW 03:55:00 43° SW 03:59:20 10° SE visible
09 May ? 19:42:11 10° SSE 19:43:28 11° SE 19:44:45 10° ESE visible
09 May ? 21:19:41 10° SW 21:24:14 52° SSE 21:25:19 42° ESE visible
09 May ? 23:01:14 10° W 23:08:03 29° NE 23:10:29 10° ENE visible
10 May ? 00:44:54 19° WNW 00:47:58 45° N 00:52:26 10° ENE visible
10 May ? 02:25:11 10° WNW 02:29:53 86° NNE 02:34:31 10° ESE visible
10 May ? 04:07:17 10° W 04:11:04 25° SW 04:14:47 10° SSE visible
10 May ? 19:55:51 10° S 19:59:22 21° SE 20:02:55 10° E visible
10 May ? 21:35:47 10° WSW 21:40:29 85° SSE 21:45:12 10° ENE visible
10 May ? 23:17:49 10° W 23:22:21 46° N 23:26:53 10° ENE visible
11 May ? 00:59:53 10° WNW 01:04:29 52° NNE 01:09:02 10° E visible
11 May ? 02:41:33 10° WNW 02:46:10 60° SSW 02:50:42 10° SE visible
11 May ? 20:11:07 10° SSW 20:15:25 38° SE 20:19:45 10° ENE visible
11 May ? 21:52:11 10° WSW 21:56:51 66° NNW 22:01:32 10° ENE visible
11 May ? 23:34:24 10° WNW 23:38:54 44° N 23:43:23 10° ENE visible
12 May ? 01:16:14 10° WNW 01:20:56 69° NNE 01:25:34 10° ESE visible
12 May ? 02:58:05 10° WNW 03:02:19 35° SW 03:06:31 10° SSE visible
12 May ? 20:26:58 10° SW 20:31:35 65° SSE 20:36:15 10° ENE visible
12 May ? 22:08:44 10° W 22:13:19 51° NNW 22:17:54 10° ENE visible
12 May ? 23:50:54 10° WNW 23:55:27 47° N 23:56:36 39° NE visible
13 May ? 01:32:35 10° WNW 01:40:58 16° ESE 01:41:56 10° ESE visible
13 May ? 03:18:25 19° SW 03:18:25 19° SW 03:21:38 10° S visible
13 May ? 20:43:12 10° WSW 20:47:53 82° NNW 20:52:37 10° ENE visible
13 May ? 22:25:20 10° WNW 22:29:51 45° N 22:34:06 11° ENE visible
14 May ? 00:07:18 10° WNW 00:11:05 49° NNW 00:11:05 49° NNW visible
14 May ? 20:59:40 10° W 21:04:18 59° NNW 21:08:57 10° ENE visible
14 May ? 22:41:53 10° WNW 22:46:24 44° N 22:48:59 23° ENE visible
15 May ? 00:23:39 10° WNW 00:25:59 29° WNW 00:25:59 29° WNW visible
15 May ? 21:16:16 10° W 21:20:47 47° N 21:25:21 10° ENE visible
15 May ? 22:58:20 10° WNW 23:02:56 50° NNE 23:03:59 42° NE visible
16 May ? 00:40:00 10° WNW 00:41:00 16° WNW 00:41:00 16° WNW visible
16 May ? 19:50:40 10° WSW 19:55:19 71° NNW 20:00:01 10° ENE visible
16 May ? 21:32:50 10° WNW 21:37:20 44° N 21:41:51 10° ENE visible
16 May ? 23:14:42 10° WNW 23:19:04 63° N 23:19:04 63° N visible
17 May ? 20:07:11 10° W 20:11:45 53° NNW 20:16:22 10° ENE visible
17 May ? 21:49:21 10° WNW 21:53:53 46° N 21:57:11 17° ENE visible
17 May ? 23:31:03 10° WNW 23:34:11 42° WNW 23:34:11 42° WNW visible
